Вернуться в каталог

SL-14 R/B

АктивенPO
NORAD 15172·ROCKET BODY·🇷🇺 Russia

Запущен Aug 8, 1984 с Plesetsk Cosmodrome

Loading…

Ближайшие Пролёты (ближайшие 24 часа)

TLE

СвежийSource: Space-Track

Эпоха: Sep 14, 2026, 06:38 UTC

1 15172U 84084B   26257.27641828  .00000003  00000-0 -53715-4 0  9999
2 15172  82.5932  94.3321 0006398 183.0075 351.3146 12.42605845909467

Отслеживайте SL-14 R/B в реальном времени с AllMySat

Download on the App Store